Flag for Sweden Weather past 2 weeks in Kiruna, Sweden

Now
48 °F

Partly sunny.


Feels Like: 48 °F
Forecast: 40 / 55 °F
Wind: No wind

Location: Kiruna Airport

Current Time: Aug 29, 2014 at 8:10:15 AM

Latest Report: Aug 29, 2014 at 7:20 AM


Visibility: N/A

Pressure: 30.07 "Hg

Humidity: 94%

Dew point: 46 °F

Location of KirunaLocation

Historic Weather in Kiruna — Graph

°F

Kiruna temperature yesterday

Maximum temperature yesterday: 54 °F (at 1:50 PM)
Minimum temperature yesterday: 46 °F (at 1:20 AM)
Average temperature yesterday: 49 °F

Past Weeks' High & Low Weather Summary

 TemperatureHumidityPressure
High63 °F (Aug 14, 12:20 PM)100% (Aug 17, 3:50 AM)30.09 "Hg (Aug 17, 3:50 AM)
Low36 °F (Aug 24, 1:50 AM)48% (Aug 24, 1:20 PM)29.42 "Hg (Aug 14, 6:20 AM)
Average48 °F82%29.68 "Hg
* Reported Aug 14 6:20 AM — Aug 29 6:50 AM, Kiruna, Weather by CustomWeather, © 2014

Note: Actual official high and low records may vary slightly from our data, if they occured in-between our weather recording intervals... More about our weather records

Advertising

Kiruna weather history for previous 24 hours

 ConditionsComfort  
Time TempWeatherWind HumidityBarometerVisibility
6:50 AM
Aug 29
46 °FBroken clouds.No wind100%30.09 "HgN/A
6:20 AM46 °FMore clouds than sun.No wind100%30.07 "HgN/A
5:50 AM46 °FPartly cloudy.No wind100%30.07 "HgN/A
5:20 AM46 °FMostly cloudy.No wind100%30.07 "HgN/A
4:50 AM46 °FPartly cloudy.2 mph93%30.07 "HgN/A
4:20 AM46 °FLow clouds.1 mph93%30.07 "HgN/A
3:50 AM46 °FLow clouds.1 mph100%30.07 "HgN/A
3:20 AM46 °FMostly cloudy.No wind100%30.07 "HgN/A
2:50 AM46 °FOvercast.2 mph100%30.07 "HgN/A
2:20 AM46 °FPartly cloudy.2 mph100%30.07 "HgN/A
1:50 AM48 °FMostly cloudy.2 mph94%30.07 "HgN/A
1:20 AM48 °FOvercast.2 mph94%30.07 "HgN/A
12:50 AM48 °FOvercast.3 mph94%30.07 "HgN/A
12:20 AM48 °FOvercast.2 mph94%30.07 "HgN/A
11:50 PM
Aug 28
48 °FOvercast.3 mph87%30.07 "HgN/A
11:20 PM48 °FOvercast.3 mph87%30.07 "HgN/A
10:50 PM48 °FOvercast.5 mph87%30.07 "HgN/A
10:20 PM48 °FOvercast.2 mph87%30.07 "HgN/A
9:50 PM50 °FMostly cloudy.2 mph82%30.07 "HgN/A
9:20 PM50 °FMostly cloudy.3 mph82%30.07 "HgN/A
8:50 PM50 °FMore clouds than sun.3 mph82%30.07 "HgN/A
8:20 PM50 °FMore clouds than sun.3 mph82%30.07 "HgN/A
7:50 PM50 °FMore clouds than sun.3 mph82%30.04 "HgN/A
7:20 PM52 °FOvercast.3 mph77%30.04 "HgN/A
6:50 PM52 °FMostly cloudy.5 mph77%30.04 "HgN/A
6:20 PM52 °FOvercast.8 mph77%30.04 "HgN/A
5:20 PM52 °FMostly cloudy.7 mph77%30.04 "HgN/A
4:50 PM52 °FCloudy.6 mph82%30.04 "HgN/A
4:20 PM54 °FLight rain. More clouds than sun.10 mph72%30.04 "HgN/A
3:50 PM54 °FMostly cloudy.10 mph72%30.04 "HgN/A
3:20 PM54 °FMostly cloudy.10 mph72%30.04 "HgN/A
2:50 PM54 °FMostly cloudy.10 mph67%30.01 "HgN/A
2:20 PM54 °FOvercast.10 mph67%30.01 "HgN/A
1:50 PM54 °FMore clouds than sun.12 mph72%30.01 "HgN/A
1:20 PM52 °FPartly sunny.12 mph72%30.01 "HgN/A
12:50 PM52 °FPartly sunny.12 mph72%30.01 "HgN/A
12:20 PM52 °FPartly sunny.12 mph77%30.01 "HgN/A
11:50 AM52 °FPartly sunny.8 mph77%30.01 "HgN/A
11:20 AM50 °FPartly sunny.9 mph82%30.01 "HgN/A
10:50 AM50 °FPartly sunny.9 mph82%30.01 "HgN/A
10:20 AM50 °FPartly sunny.8 mph82%29.98 "HgN/A
9:50 AM50 °FMore clouds than sun.9 mph82%29.98 "HgN/A
9:20 AM50 °FMostly cloudy.7 mph82%29.98 "HgN/A
8:50 AM48 °FOvercast.7 mph87%29.98 "HgN/A
8:20 AM48 °FFog.8 mph87%29.98 "HgN/A
Weather by CustomWeather, © 2014

See weather overviewHow to use our weather pages